STARLINK-35838

Last updated on Mon Dec 15 2025 00:02:12 GMT+0000 (Coordinated Universal Time)

1 66836U 25280R 25348.25003472 -.01753603 00000+0 -13700-1 0 9999 2 66836 69.9936 194.5097 0003825 273.9059 53.6515 15.74393083 3147
UTC large
Height (km)
Speed (km/s)
/
Latitude / Longitude
Inclination (degrees)
Orbital Period (minutes)
Azimuth
Elevation
Range (km)
Doppler Factor

Next 0 passes for location: London (51.5072 / 0.1276)

Sorry there are no passes over London.